IMG Academy FL US WEATHERSTEM current weather conditions

sailwx.info

Wind from 280 at 3 knots gusting 6

Air temperature 33.7° C
Dewpoint 26.4° C

Last reported at 2020-Aug-12 17:00 UTC.
Time now 2020-Aug-12 17:52 UTC

Location: N 27°26' W 082°37'.
View on Google Maps.

See reports from other nearby stations

  
Tides and Currents Weather Stations Pressure Air Temp Water Temp Dewpoint Dewpoint Depression Visibility Wind Speed Wind Dir Waves Ship Positions
date/time (UTC)wind fromknots sea level pressurealtimeterstation pressurevisibilityair tempwater tempwave heightnotes
2020-Aug-12 17:00 280 3 gusting 6 33.7
2020-Aug-12 16:50 202 1 gusting 3 32.9
2020-Aug-12 16:40 279 0 gusting 6 33.4
2020-Aug-12 16:30 188 5 gusting 6 33.2
2020-Aug-12 16:20 269 6 gusting 6 33.4
2020-Aug-12 16:10 250 0 gusting 4 34.9
2020-Aug-12 15:50 083 0 gusting 4 33.0
2020-Aug-12 15:40 078 3 gusting 5 32.2
2020-Aug-12 15:30 120 0 gusting 6 32.8
2020-Aug-12 15:20 355 1 gusting 4 33.2
2020-Aug-12 15:10 130 2 gusting 6 33.3
2020-Aug-12 15:00 33.2
2020-Aug-12 14:50 148 0 gusting 3 32.6
2020-Aug-12 14:30 138 1 gusting 4 31.6
2020-Aug-12 14:20 058 0 gusting 5 31.2
2020-Aug-12 14:10 171 4 gusting 4 31.1
2020-Aug-12 14:00 132 2 gusting 3 31.1
2020-Aug-12 13:50 138 1 gusting 6 30.8
2020-Aug-12 13:30 108 0 gusting 3 29.6
2020-Aug-12 13:20 202 0 gusting 4 29.1
2020-Aug-12 13:10 28.7
2020-Aug-12 13:00 119 3 gusting 3 28.2
2020-Aug-12 12:50 080 2 gusting 3 27.8
2020-Aug-12 12:40 166 0 gusting 2 27.1
2020-Aug-12 12:30 053 1 gusting 5 26.6
2020-Aug-12 12:20 071 1 gusting 3 26.1
2020-Aug-12 12:10 098 1 gusting 3 25.4
2020-Aug-12 12:00 105 1 gusting 3 25.0
2020-Aug-12 11:50 084 2 gusting 3 24.5
2020-Aug-12 11:40 24.2
2020-Aug-12 11:30 081 0 gusting 3 24.1
2020-Aug-12 11:20 079 2 gusting 3 24.1
2020-Aug-12 11:10 078 2 gusting 3 24.1
2020-Aug-12 11:00 068 2 gusting 5 24.2
2020-Aug-12 10:50 092 2 gusting 3 24.2
2020-Aug-12 10:40 092 0 gusting 2 24.2
2020-Aug-12 10:30 088 1 gusting 2 24.2
2020-Aug-12 10:20 24.2
2020-Aug-12 10:10 24.3
2020-Aug-12 10:00 088 0 gusting 1 24.2
2020-Aug-12 09:50 088 0 gusting 3 24.3
2020-Aug-12 09:40 098 0 gusting 3 24.2
2020-Aug-12 09:30 094 0 gusting 2 24.2
2020-Aug-12 09:20 049 0 gusting 2 24.3
2020-Aug-12 09:10 062 0 gusting 1 24.3
2020-Aug-12 09:00 062 0 gusting 3 24.3
2020-Aug-12 08:50 24.3
2020-Aug-12 08:30 24.4
2020-Aug-12 08:10 129 1 gusting 4 24.4
2020-Aug-12 08:00 117 2 gusting 2 24.3
2020-Aug-12 07:50 24.3
2020-Aug-12 07:40 100 0 gusting 2 24.3
2020-Aug-12 07:30 119 0 gusting 3 24.4
2020-Aug-12 07:20 098 1 gusting 3 24.4
2020-Aug-12 07:10 104 1 gusting 2 24.4
2020-Aug-12 07:00 24.4
2020-Aug-12 06:40 046 0 gusting 2 24.6
2020-Aug-12 06:30 24.7
2020-Aug-12 06:10 24.6
2020-Aug-12 06:00 24.7
2020-Aug-12 05:50 109 0 gusting 1 24.7
2020-Aug-12 05:40 24.7
2020-Aug-12 05:30 123 1 gusting 3 24.7
2020-Aug-12 05:20 24.6
2020-Aug-12 05:10 142 0 gusting 4 24.6
2020-Aug-12 05:00 24.6
2020-Aug-12 04:40 130 0 gusting 3 24.6
2020-Aug-12 04:30 164 1 gusting 1 24.6
2020-Aug-12 04:20 24.6
2020-Aug-12 04:10 075 0 gusting 2 24.6
2020-Aug-12 04:00 24.6
2020-Aug-12 03:40 24.7
2020-Aug-12 03:30 073 0 gusting 1 24.7
2020-Aug-12 03:10 24.8
2020-Aug-12 03:00 124 2 gusting 4 24.8
2020-Aug-12 02:40 111 2 gusting 6 25.0
2020-Aug-12 02:30 192 0 gusting 7 25.1
2020-Aug-12 02:10 160 4 gusting 5 25.1
2020-Aug-12 02:00 057 3 gusting 7 25.0
2020-Aug-12 01:40 073 3 gusting 7 25.3
2020-Aug-12 01:30 064 4 gusting 8 25.3
2020-Aug-12 01:10 072 5 gusting 11 25.5
2020-Aug-12 01:00 069 7 gusting 9 25.6
2020-Aug-12 00:40 068 6 gusting 8 25.8
2020-Aug-12 00:30 078 7 gusting 10 25.9
2020-Aug-12 00:10 071 7 gusting 9 26.3
2020-Aug-12 00:00 069 6 gusting 7 26.5
2020-Aug-11 23:40 071 6 gusting 8 26.7
2020-Aug-11 23:30 072 7 gusting 7 26.8
2020-Aug-11 23:20 085 1 gusting 3 26.9
2020-Aug-11 23:10 067 2 gusting 5 27.1
2020-Aug-11 23:00 076 4 gusting 4 27.4
2020-Aug-11 22:40 150 1 gusting 6 27.5
2020-Aug-11 22:30 034 0 gusting 2 27.4
2020-Aug-11 22:20 031 1 gusting 1 27.4
2020-Aug-11 22:10 009 1 gusting 3 27.3
2020-Aug-11 22:00 009 2 gusting 3 27.2
2020-Aug-11 21:50 061 2 gusting 3 27.2
2020-Aug-11 21:40 27.3
2020-Aug-11 21:30 167 2 gusting 6 27.3
2020-Aug-11 21:20 050 2 gusting 11 27.5
2020-Aug-11 21:10 350 1 gusting 12 28.0
2020-Aug-11 21:00 286 2 gusting 8 29.1
2020-Aug-11 20:50 060 0 gusting 7 30.2
2020-Aug-11 20:40 30.5
2020-Aug-11 20:30 302 2 gusting 5 30.4
2020-Aug-11 20:20 30.3
2020-Aug-11 20:10 306 0 gusting 2 30.4
2020-Aug-11 20:00 074 1 gusting 2 30.3
2020-Aug-11 19:50 085 0 gusting 2 30.2
2020-Aug-11 19:40 098 0 gusting 3 30.1
2020-Aug-11 19:30 077 1 gusting 2 29.7
2020-Aug-11 19:20 29.6
2020-Aug-11 19:10 077 0 gusting 2 29.3
2020-Aug-11 19:00 078 0 gusting 7 28.8
2020-Aug-11 18:50 084 6 gusting 12 29.1
2020-Aug-11 18:40 199 1 gusting 6 31.2
2020-Aug-11 18:30 300 6 gusting 7 31.7
2020-Aug-11 18:20 267 6 gusting 10 31.3
2020-Aug-11 18:10 236 6 gusting 13 31.3
2020-Aug-11 18:00 231 5 gusting 13 31.2
2020-Aug-11 17:50 255 8 gusting 13 31.4
2020-Aug-11 17:40 268 6 gusting 12 31.6
2020-Aug-11 17:30 305 3 gusting 10 31.1
2020-Aug-11 17:20 252 3 gusting 10 31.1
2020-Aug-11 17:10 227 8 gusting 12 31.6
2020-Aug-11 17:00 244 9 gusting 9 31.0
2020-Aug-11 16:50 236 7 gusting 9 30.8
2020-Aug-11 16:40 256 3 gusting 7 30.8
2020-Aug-11 16:30 232 3 gusting 7 30.9
2020-Aug-11 16:20 284 2 gusting 8 31.4
2020-Aug-11 16:10 195 4 gusting 8 32.1
2020-Aug-11 16:00 225 5 gusting 7 32.7
2020-Aug-11 15:50 216 5 gusting 5 34.1
2020-Aug-11 15:30 043 0 gusting 2 33.4
2020-Aug-11 15:10 251 3 gusting 6 32.8
2020-Aug-11 14:50 246 4 gusting 7 32.3
2020-Aug-11 14:40 215 3 gusting 4 32.3
2020-Aug-11 14:30 171 4 gusting 6 32.2
2020-Aug-11 14:10 232 1 gusting 4 31.9
2020-Aug-11 13:50 204 1 gusting 3 31.6
2020-Aug-11 13:40 200 1 gusting 3 31.7
2020-Aug-11 13:30 129 1 gusting 2 31.6
2020-Aug-11 13:10 080 0 gusting 1 30.0
2020-Aug-11 12:50 082 0 gusting 2 28.9
2020-Aug-11 12:40 082 0 gusting 1 28.3
2020-Aug-11 12:30 27.8
2020-Aug-11 12:20 082 1 gusting 2 27.4
2020-Aug-11 12:10 26.8
2020-Aug-11 11:50 072 26.1
2020-Aug-11 11:40 072 1 gusting 2 25.7
2020-Aug-11 11:30 071 1 gusting 2 25.4
2020-Aug-11 11:20 071 1 gusting 2 25.3
2020-Aug-11 10:50 25.3
2020-Aug-11 10:30 098 0 gusting 2 25.4
2020-Aug-11 10:10 098 0 gusting 3 25.6
2020-Aug-11 09:50 307 0 gusting 6 25.4
2020-Aug-11 09:40 040 1 gusting 6 25.4
2020-Aug-11 09:30 053 1 gusting 3 25.4
2020-Aug-11 09:10 095 3 gusting 5 25.3
2020-Aug-11 08:50 088 0 gusting 3 25.3
2020-Aug-11 08:30 084 1 gusting 4 25.4
2020-Aug-11 08:10 078 0 gusting 3 25.6
2020-Aug-11 07:50 078 1 gusting 3 25.6
2020-Aug-11 07:40 090 3 gusting 3 25.7
2020-Aug-11 07:30 076 0 gusting 2 25.8
2020-Aug-11 07:20 25.8
2020-Aug-11 07:10 25.9
2020-Aug-11 06:50 26.1
2020-Aug-11 06:40 098 1 gusting 2 26.2
2020-Aug-11 06:30 098 1 gusting 3 26.2
2020-Aug-11 05:50 103 0 gusting 2 26.5
2020-Aug-11 05:40 080 0 gusting 2 26.5
2020-Aug-11 05:30 080 0 gusting 4 26.4
2020-Aug-11 05:20 101 2 gusting 2 26.3
2020-Aug-11 05:10 26.3
2020-Aug-11 04:50 135 26.3
2020-Aug-11 04:40 122 3 gusting 3 26.3
2020-Aug-11 04:30 156 2 gusting 5 26.3
2020-Aug-11 04:20 107 0 gusting 1 26.4
2020-Aug-11 04:10 26.4
2020-Aug-11 03:50 121 2 gusting 7 26.7
2020-Aug-11 03:40 059 3 gusting 11 27.0
2020-Aug-11 03:30 113 1 gusting 2 27.2
2020-Aug-11 03:20 157 0 gusting 1 27.1
2020-Aug-11 03:10 157 0 gusting 0 26.9
2020-Aug-11 02:50 157 0 gusting 1 26.7
2020-Aug-11 02:40 157 0 gusting 2 26.7
2020-Aug-11 02:30 26.8
2020-Aug-11 02:20 158 0 gusting 1 26.9
2020-Aug-11 02:10 158 2 gusting 2 26.9
2020-Aug-11 01:50 330 3 gusting 3 26.9
2020-Aug-11 01:40 076 0 gusting 3 27.0
2020-Aug-11 01:30 076 3 gusting 3 27.1
2020-Aug-11 01:20 076 0 gusting 2 27.1
2020-Aug-11 01:10 076 2 gusting 4 27.2
2020-Aug-11 00:50 166 3 gusting 3 27.3
2020-Aug-11 00:40 158 0 gusting 7 27.4
2020-Aug-11 00:30 090 6 gusting 11 27.6
2020-Aug-11 00:20 212 2 gusting 10 28.2
2020-Aug-11 00:10 164 5 gusting 13 29.2
2020-Aug-10 23:50 266 2 gusting 6 30.7
2020-Aug-10 23:40 249 3 gusting 6 30.9
2020-Aug-10 23:30 246 1 gusting 7 31.1
2020-Aug-10 23:20 061 0 gusting 1 31.0
2020-Aug-10 23:10 30.5
2020-Aug-10 22:50 217 0 gusting 5 29.8
2020-Aug-10 22:40 071 3 gusting 6 29.3
2020-Aug-10 22:30 063 5 gusting 9 29.2
2020-Aug-10 22:20 073 6 gusting 10 29.5
2020-Aug-10 22:10 088 6 gusting 10 30.7
2020-Aug-10 21:50 295 9 gusting 13 32.5
2020-Aug-10 21:40 307 9 gusting 14 32.7
2020-Aug-10 21:30 288 6 gusting 14 32.3
2020-Aug-10 21:20 292 13 gusting 13 32.7
2020-Aug-10 21:10 302 7 gusting 14 32.2
2020-Aug-10 20:50 111 1 gusting 5 31.7
2020-Aug-10 20:40 355 2 gusting 10 32.6
2020-Aug-10 20:30 331 8 gusting 13 33.2
2020-Aug-10 20:20 319 3 gusting 14 32.6
2020-Aug-10 20:10 298 8 gusting 12 33.1
2020-Aug-10 19:50 306 7 gusting 13 34.3
2020-Aug-10 19:40 360 5 gusting 8 33.3
2020-Aug-10 19:30 031 3 gusting 8 32.6
2020-Aug-10 19:20 038 0 gusting 8 32.4
2020-Aug-10 19:10 014 2 gusting 7 32.3
2020-Aug-10 18:50 343 6 gusting 9 32.3
2020-Aug-10 18:40 306 2 gusting 7 32.3
2020-Aug-10 18:30 337 2 gusting 6 32.3
2020-Aug-10 18:10 009 1 gusting 5 33.1
2020-Aug-10 17:50 200 3 gusting 5 33.1
2020-Aug-10 17:40 201 0 gusting 4 33.9
2020-Aug-10 17:30 34.3
2020-Aug-10 17:10 055 1 gusting 8 34.2